Live-Position
3D-Globus wird geladen...
Über OneWeb SL0240
Group: 3 satellites
Beschreibung wird geladen...
Nächste Überflüge
Passes for default location (London). Set your location on the main map for personalized predictions.
Höhenverlauf
Loading altitude history...
No altitude history available
Zweizeiliger Elementsatz
1 48785U 21045U 26127.64441677 -.00000040 00000-0 -14014-3 0 9990
2 48785 87.8980 267.2609 0001600 89.8722 270.2591 13.15549376239070
Epoch: 7. Mai 2026 •
Age: 7 hours
Aktueller Status
Höhe 1204.2 km
Geschwindigkeit 7.25 km/s
Subsatellitenpunkt 23.99°N,
59.01°E
Startdatum 28. Mai 2021
Alter 4.9 years
Typ internet
Startgruppe
Unknown Vehicle •
OneWeb Launch 7 •
36 satellites
OneWeb SL0211
48767
OneWeb SL0223 48768
OneWeb SL0230 48769
OneWeb SL0237 48770
OneWeb SL0235 48771
OneWeb SL0242 48772
OneWeb SL0241 48773
OneWeb SL0243 48774
OneWeb SL0222 48775
OneWeb SL0244 48776
OneWeb SL0247 48777
OneWeb SL0245 48778
OneWeb SL0229 48779
OneWeb SL0228 48780
OneWeb SL0232 48781
OneWeb SL0231 48782
OneWeb SL0234 48783
OneWeb SL0238 48784
OneWeb SL0246 48786
OneWeb SL0210 48787
...and 15 more
Technische Details
Klassifizierung Payload
Masse 148.00 kg
Trockenmasse 140.00 kg
Gesamtmasse 148.00 kg
Länge 1.30 m
Durchmesser 1.00 m
Spannweite 5.00 m
Form Trapezoid+2 pan
Hersteller ONEWUS
Bus-Typ ARROW
Phasenstatus In Orbit
Besitzer/Staat ONEWEBN/UK
Most Searched
Loading...